Regional Weather Roundup
Issued by NWS

Home | Current Version | Previous Version | Graphics & Text | Print | Product List | Glossary On
Versions: 1 2 3 4 5 6 7 8 9 10 11 12 13 14 15 16 17 18 19 20 21 22 23 24 25 26 27 28 29 30 31 32 33 34 35 36 37 38 39 40 41 42 43 44 45 46 47 48 49 50
652
ASUS43 KLSX 231107
RWRMO

WEATHER SUMMARY FOR MISSOURI
NATIONAL WEATHER SERVICE SPRINGFIELD MO
500 AM CST MON JAN 23 2017

NOTE: "FAIR" INDICATES FEW OR NO CLOUDS BELOW 12,000 FEET WITH NO
       SIGNIFICANT WEATHER AND/OR OBSTRUCTIONS TO VISIBILITY.
       CURRENT SKY AND/OR WEATHER CONDITIONS ARE NOT AVAILABLE FOR
       CHILLICOTHE AND FARMINGTON.

MOZ001>031-035>038-043-044-053-054-231200-
...NORTHERN AND WESTERN MISSOURI...

CITY           SKY/WX    TMP DP  RH WIND       PRES   REMARKS
KANSAS CTY INT FOG       30  28  92 NW8       29.90S VSB 1/8 WCI  22
KANSAS C DTWN  PTCLDY    31  30  96 W3        29.91R
LEE`S SUMMIT   CLEAR     31  29  92 W7        29.89S FOG     WCI  24
ST JOSEPH      CLOUDY    32  32 100 NW5       29.91S FOG     WCI  27
CHILLICOTHE      N/A     35  34  96 NW9       29.88R WCI  28
KIRKSVILLE     CLOUDY    38  36  92 NW6       29.83R

$$
MOZ066>068-077>081-088>096-101>105-231200-
...SOUTHWEST MISSOURI...

CITY           SKY/WX    TMP DP  RH WIND       PRES   REMARKS
SPRINGFIELD    CLOUDY    38  35  89 NW14      29.85S WCI  30
JOPLIN         CLOUDY    37  36  96 N7        29.89F
BRANSON        CLOUDY    37  36  93 NW7       29.86R

$$
MOZ032>034-039>042-045>050-055>058-069>072-231200-
...CENTRAL MISSOURI...

CITY           SKY/WX    TMP DP  RH WIND       PRES   REMARKS
COLUMBIA       CLOUDY    39  36  89 NW12      29.83R
JEFFERSON CITY CLOUDY    40  36  86 NW10      29.84R
ROLLA          CLOUDY    38  37  97 NW12      29.80R
SEDALIA        CLOUDY    39  36  89 NW8       29.87S
WHITEMAN AFB   CLOUDY    35  35 100 W6        29.87R WCI  29
WARRENSBURG    CLEAR     32  32 100 W5        29.88S FOG     WCI  27
OSAGE BEACH    CLOUDY    39  36  89 NW5       29.86R

$$
MOZ051-052-059>065-231200-
...EAST CENTRAL MISSOURI...

CITY           SKY/WX    TMP DP  RH WIND       PRES   REMARKS
ST LOUIS INTL  CLOUDY    41  35  79 NW15      29.76F
SPIRIT OF STL  CLOUDY    41  37  86 N6        29.77F
ST CHARLES     CLOUDY    40  37  89 NW8       29.77S

$$
MOZ072>076-082>087-097>100-106>115-231200-
...SOUTH CENTRAL AND SOUTHEAST MISSOURI...

CITY           SKY/WX    TMP DP  RH WIND       PRES   REMARKS
CAPE GIRARDEAU PTCLDY    40  34  79 N16G24    29.70S
FARMINGTON     CLOUDY    39  34  82 NW13      29.75S
POPLAR BLUFF   PTCLDY    42  35  76 NW14G20   29.72R
WEST PLAINS    CLOUDY    40  34  79 N13G24    29.80S

$$



USA.gov is the U.S. government's official web portal to all federal, state and local government web resources and services.